ARIANE 5 DEB [SYLDA] (44037 NORAD) Tracking and Keplerian Element Data

This shows tracking and keplerian element data for the satellite.

Feedback or suggestion? Click here.




ElementValue
Catalog44037
NameARIANE 5 DEB [SYLDA]
Epoch Orbit37
Epoch Day53.35824695
Epoch Year2019
RAAN275.8642
Inclination2.7236
Eccentricity0.7285975
Argument of Perigee184.9411
Mean Anonmoly157.7865
Mean Motion2.27333529
Decay Rate8.15E-06
L11 44037U 19007D 19053.35824695 .00000815 00000-0 27263-3 0 9992
L22 44037 2.7236 275.8642 7285975 184.9411 157.7865 2.27333529 370

Live tracking and technical data element details for ARIANE 5 DEB [SYLDA] (NORAD 44037). ARIANE 5 DEB [SYLDA] can be tracked NOW for your location showing map with azimuth and elevation plus other details from your city location.

Track the satellite on the map from your city or location and see movement details for azimuth, elevation, latitude, longitude, range, height, and movement on the map or in text.







IsCatalogInMostPopularTable: catalog: 44037, numindb: 7
Update: records affected: 1



GetName: 44037 ARIANE 5 DEB [SYLDA]

Hit Count: updated at: Sat, 23 Feb 2019 16:48:10 GMT